"Pseudo-MPEC" for C1EUYV5

Created 2026 May 8 1:35:05 UT using Find_Orb

Click here for an explanation of pseudo-MPECs

 
 Astrometry: 
     C1EUYV5*1C2026 04 27.46483017 29 28.788+17 40 02.21   ~4RC5 20.88GVNEOCPV00
     C1EUYV5 1C2026 04 27.47177517 29 28.496+17 40 04.04   ~4RC5       VNEOCPV00
     C1EUYV5 1C2026 04 27.48001817 29 28.122+17 40 06.53   ~4RC5 21.61GVNEOCPV00
     C1EUYV5 1C2026 04 27.48560317 29 27.931+17 40 07.86   ~4RC5 21.66GVNEOCPV00
     C1EUYV5 0C2026 04 28.32668017 28 53.200+17 43 48.10   ~4S8o 21.3 RVNEOCP291
     C1EUYV5 0C2026 04 28.33565017 28 52.780+17 43 50.70   ~4S8o 21.6 RVNEOCP291
     C1EUYV5 1C2026 04 28.33652017 28 52.730+17 43 50.40   ~4S9K       VNEOCPI52
     C1EUYV5 1C2026 04 28.34586017 28 52.367+17 43 53.29   ~4S9K 21.19GVNEOCPI52
     C1EUYV5 1C2026 04 28.35517517 28 52.010+17 43 55.30   ~4S9K       VNEOCPI52
     C1EUYV5 1C2026 04 28.36449817 28 51.604+17 43 58.73   ~4S9K 21.78GVNEOCPI52
     C1EUYV5 0C2026 05 07.24744017 22 20.530+18 20 01.30   ~5775 21.7 RVNEOCP291
     C1EUYV5 0C2026 05 07.25836017 22 20.000+18 20 03.70   ~5775 21.6 RVNEOCP291

Station data:
(291) LPL/Spacewatch II  (N31.961669 W111.599905)  US/Arizona.  Observers J.
   V. Scotti, R. S. McMillan. 1.8-m f/2.7 reflector + CCD.
(I52) Steward Observatory, Mt. Lemmon Station  (N32.442570 W110.788920)
   US/Arizona. Measurers T. Beuden, V. F. Carvajal, D. Fay, J. B. Fazekas, D.
   C. Fuls, A. R. Gibbs, A. D. Grauer, H. Gröller, J. K. Hogan, R. A.
   Kowalski, S. M. Larson, G. J. Leonard, D. Rankin, R. L. Seaman, F. C.
   Shelly, K. W. Wierzchoś. 1.0-m prime focus + CCD.
(V00) Kitt Peak-Bok  (N31.963125 W111.600190)  US/Arizona. Measurers T.
   Beuden, V. F. Carvajal, D. Fay, J. B. Fazekas, D. C. Fuls, A. R. Gibbs, A.
   D. Grauer, H. Gröller, J. K. Hogan, R. A. Kowalski, S. M. Larson, G. J.
   Leonard, D. Rankin, R. L. Seaman, F. C. Shelly, K. W. Wierzchoś. 2.25-m
   reflector + 4x4K mosaic CCD.

Orbital elements:  C1EUYV5
   Perihelion 2026 Jun 25.294920 +/- 115 TT =  7:04:41.1 (JD 2461216.794920)
Epoch 2026 May  7.0 TT = JDT 2461167.5   Ur: 0.1712              AutoNEOCP
q   7.723699400 +/- 0.084           (J2000 ecliptic)
H   12.64 G 0.15                    Peri.  100.737762 +/- 7
z  -0.0017779766 +/- 0.0252         Node   352.588314 +/- 0.9
e   1.01373255 +/- 0.195            Incl.  142.559386 +/- 0.029
From 12 observations 2026 Apr. 27-May 7; mean residual 0".27
Residuals in arcseconds: 
260427 V00  .11+  .12-    260428 291  .29+  .11-    260428 I52  .41+  .36-    
260427 V00  .07+  .12-    260428 291  .33-  .14+    260428 I52  .21+  .63+    
260427 V00  .38-  .20+    260428 I52  .50-  .38-    260507 291  .15+  .04+    
260427 V00  .21+  .06+    260428 I52  .08-  .06+    260507 291  .15-  .04-    

Ephemerides (geocentric):
Date (UTC) HH   RA             Dec           delta  r     elong  mag " sig PA
---- --------  ------------   ------------  ------ ------ -----  --- --------
2026 05 08 02  17 21 41.597   +18 23 08.13  7.0403 7.7296 130.2 21.8 .369  14
2026 05 08 03  17 21 39.652   +18 23 17.34  7.0400 7.7295 130.2 21.8 .388  14
2026 05 08 04  17 21 37.705   +18 23 26.54  7.0396 7.7295 130.2 21.8 .408  14
2026 05 08 05  17 21 35.758   +18 23 35.73  7.0393 7.7295 130.2 21.8 .427  13
2026 05 08 06  17 21 33.810   +18 23 44.91  7.0390 7.7295 130.2 21.8 .447  13
2026 05 08 07  17 21 31.861   +18 23 54.09  7.0387 7.7295 130.3 21.8 .467  13
2026 05 08 08  17 21 29.912   +18 24 03.26  7.0384 7.7295 130.3 21.8 .487  13
2026 05 08 09  17 21 27.961   +18 24 12.42  7.0381 7.7295 130.3 21.8 .507  13
2026 05 08 10  17 21 26.010   +18 24 21.57  7.0378 7.7295 130.3 21.8 .527  13
2026 05 08 11  17 21 24.058   +18 24 30.71  7.0375 7.7295 130.4 21.8 .548  13
2026 05 08 12  17 21 22.105   +18 24 39.85  7.0372 7.7294 130.4 21.8 .568  13
2026 05 08 13  17 21 20.151   +18 24 48.97  7.0368 7.7294 130.4 21.8 .589  13
2026 05 08 14  17 21 18.197   +18 24 58.09  7.0365 7.7294 130.4 21.8 .610  13
2026 05 08 15  17 21 16.241   +18 25 07.20  7.0362 7.7294 130.5 21.8 .631  13
2026 05 08 16  17 21 14.285   +18 25 16.31  7.0359 7.7294 130.5 21.8 .652  13
2026 05 08 17  17 21 12.328   +18 25 25.40  7.0356 7.7294 130.5 21.8 .673  12
2026 05 08 18  17 21 10.371   +18 25 34.49  7.0353 7.7294 130.5 21.8 .695  12
2026 05 08 19  17 21 08.412   +18 25 43.57  7.0350 7.7294 130.6 21.8 .717  12
2026 05 08 20  17 21 06.453   +18 25 52.63  7.0347 7.7294 130.6 21.8 .738  12
2026 05 08 21  17 21 04.493   +18 26 01.70  7.0344 7.7294 130.6 21.8 .760  12
2026 05 08 22  17 21 02.532   +18 26 10.75  7.0341 7.7293 130.6 21.8 .782  12
2026 05 08 23  17 21 00.570   +18 26 19.79  7.0338 7.7293 130.6 21.8 .804  12
2026 05 09 00  17 20 58.608   +18 26 28.83  7.0335 7.7293 130.7 21.8 .827  12
2026 05 09 01  17 20 56.644   +18 26 37.86  7.0332 7.7293 130.7 21.8 .849  12
2026 05 09 02  17 20 54.680   +18 26 46.88  7.0329 7.7293 130.7 21.8 .872  12
2026 05 09 03  17 20 52.715   +18 26 55.89  7.0326 7.7293 130.7 21.8 .895  12
2026 05 09 04  17 20 50.750   +18 27 04.90  7.0323 7.7293 130.8 21.8 .918  12
2026 05 09 05  17 20 48.783   +18 27 13.89  7.0320 7.7293 130.8 21.8 .941  12
2026 05 09 06  17 20 46.816   +18 27 22.88  7.0317 7.7293 130.8 21.8 .964  12
2026 05 09 07  17 20 44.848   +18 27 31.86  7.0314 7.7293 130.8 21.8 .987  12
2026 05 09 08  17 20 42.879   +18 27 40.83  7.0311 7.7293 130.9 21.8 1.01  12
2026 05 09 09  17 20 40.910   +18 27 49.79  7.0308 7.7292 130.9 21.8 1.03  12
2026 05 09 10  17 20 38.939   +18 27 58.75  7.0305 7.7292 130.9 21.8 1.06  11
2026 05 09 11  17 20 36.968   +18 28 07.69  7.0302 7.7292 130.9 21.8 1.08  11
2026 05 09 12  17 20 34.996   +18 28 16.63  7.0299 7.7292 131.0 21.8 1.11  11
2026 05 09 13  17 20 33.023   +18 28 25.56  7.0296 7.7292 131.0 21.8 1.13  11
2026 05 09 14  17 20 31.050   +18 28 34.48  7.0293 7.7292 131.0 21.8 1.16  11
2026 05 09 15  17 20 29.076   +18 28 43.39  7.0290 7.7292 131.0 21.8 1.18  11
2026 05 09 16  17 20 27.100   +18 28 52.29  7.0287 7.7292 131.0 21.8 1.20  11
2026 05 09 17  17 20 25.125   +18 29 01.19  7.0284 7.7292 131.1 21.8 1.23  11
2026 05 09 18  17 20 23.148   +18 29 10.08  7.0281 7.7292 131.1 21.8 1.25  11
2026 05 09 19  17 20 21.171   +18 29 18.96  7.0278 7.7291 131.1 21.8 1.28  11
2026 05 09 20  17 20 19.192   +18 29 27.83  7.0275 7.7291 131.1 21.8 1.30  11
2026 05 09 21  17 20 17.213   +18 29 36.69  7.0272 7.7291 131.2 21.8 1.33  11
2026 05 09 22  17 20 15.234   +18 29 45.54  7.0269 7.7291 131.2 21.8 1.36  11
2026 05 09 23  17 20 13.253   +18 29 54.39  7.0266 7.7291 131.2 21.8 1.38  11
2026 05 10 00  17 20 11.272   +18 30 03.22  7.0263 7.7291 131.2 21.8 1.41  11
2026 05 10 01  17 20 09.290   +18 30 12.05  7.0260 7.7291 131.3 21.8 1.43  11